Location: NJAA Observatory
(40.6819°N, 74.8979°W)
Time: 10:09:23
(UTC-04:00)

Vanguard 1 - All Passes

Search period start: 30 July 2015 00:00
Search period end: 09 August 2015 00:00
Orbit: 649 x 3836 km, 34.3° (Epoch: 28 July)

Date Brightness Start Highest point End Pass type
(mag) Time Alt. Az. Time Alt. Az. Time Alt. Az.
30 Jul - 03:03:08 10° SSW 03:18:39 35° SE 03:38:28 10° E visible
30 Jul - 05:22:25 10° SW 05:43:31 63° SSE 06:04:59 10° E visible
30 Jul - 07:46:43 10° W 08:10:22 73° S 08:28:19 10° ESE daylight
30 Jul - 10:14:02 10° W 10:35:31 55° SSW 10:48:52 10° SE daylight
30 Jul - 12:44:12 10° W 12:56:46 22° SW 13:04:50 10° S daylight
31 Jul - 01:11:53 10° SE 01:17:23 13° SE 01:26:12 10° E visible
31 Jul - 03:22:58 10° SSW 03:39:38 42° SE 04:00:44 10° E visible
31 Jul - 05:43:30 10° WSW 06:05:07 68° SSE 06:26:33 10° E daylight
31 Jul - 08:08:25 10° W 08:32:02 71° S 08:49:32 10° ESE daylight
31 Jul - 10:36:03 10° W 10:56:35 48° SSW 11:09:24 10° SE daylight
31 Jul - 13:08:09 10° W 13:17:14 16° SW 13:23:11 10° SSW daylight
01 Aug - 01:28:19 10° SSE 01:38:03 19° SE 01:52:00 10° E visible
01 Aug - 03:43:14 10° SW 04:00:45 50° SSE 04:22:44 10° E visible
01 Aug - 06:04:45 10° WSW 06:26:50 71° S 06:48:04 10° E daylight
01 Aug - 08:30:10 10° W 08:53:39 68° SSW 09:10:39 10° ESE daylight
01 Aug - 10:58:12 10° W 11:17:29 40° SW 11:29:41 10° SSE daylight
02 Aug - 01:46:47 10° S 01:58:43 26° SE 02:15:41 10° E visible
02 Aug - 04:03:47 10° SW 04:22:01 57° SSE 04:44:34 10° E visible
02 Aug - 06:26:10 10° WSW 06:48:36 73° S 07:09:31 10° E daylight
02 Aug - 08:51:58 10° W 09:15:09 63° SSW 09:31:37 10° SE daylight
02 Aug - 11:20:35 10° W 11:38:14 33° SW 11:49:36 10° SSE daylight
03 Aug - 02:06:06 10° SSW 02:19:27 34° SE 02:38:31 10° E visible
03 Aug - 04:24:35 10° SW 04:43:27 63° SSE 05:06:19 10° E visible
03 Aug - 06:47:40 10° W 07:10:22 73° S 07:30:55 10° ESE daylight
03 Aug - 09:13:49 10° W 09:36:29 57° SSW 09:52:25 10° SE daylight
03 Aug - 11:43:26 10° W 11:58:51 25° SW 12:09:02 10° S daylight
04 Aug - 00:16:42 10° SE 00:19:11 11° SE 00:24:11 10° ESE visible
04 Aug - 02:25:58 10° SSW 02:40:17 41° SE 03:00:54 10° E visible
04 Aug - 04:45:35 10° WSW 05:04:59 68° SSE 05:28:00 10° E visible
04 Aug - 07:09:14 10° W 07:32:07 72° S 07:52:14 10° ESE daylight
04 Aug - 09:35:44 10° W 09:57:40 50° SSW 10:12:58 10° SE daylight
04 Aug - 12:07:07 10° W 12:19:24 18° SW 12:27:35 10° SSW daylight
05 Aug - 00:32:03 10° SSE 00:39:41 17° SE 00:51:10 10° E visible
05 Aug - 02:46:12 10° SW 03:01:16 49° SSE 03:23:00 10° E visible
05 Aug - 05:06:45 10° WSW 05:26:39 71° S 05:49:38 10° E visible
05 Aug - 07:30:52 10° W 07:53:48 68° SSW 08:13:26 10° ESE daylight
05 Aug - 09:57:48 10° W 10:18:41 42° SW 10:33:16 10° SSE daylight
05 Aug - 12:33:04 10° WSW 12:39:55 12° SW 12:43:57 10° SW daylight
06 Aug - 00:50:25 10° S 01:00:13 24° SE 01:15:04 10° E visible
06 Aug - 03:06:44 10° SW 03:22:24 56° SSE 03:44:56 10° E visible
06 Aug - 05:28:03 10° WSW 05:48:24 73° S 06:11:13 10° E visible
06 Aug - 07:52:32 10° W 08:15:23 64° SSW 08:34:28 10° SE daylight
06 Aug - 10:20:07 10° W 10:39:33 35° SW 10:53:11 10° SSE daylight
07 Aug - 01:09:44 10° S 01:20:49 31° SE 01:38:00 10° E visible
07 Aug - 03:27:29 10° SW 03:43:43 62° SSE 04:06:48 10° E visible
07 Aug - 05:49:26 10° W 06:10:10 73° S 06:32:45 10° ESE daylight
07 Aug - 08:14:15 10° W 08:36:49 58° SSW 08:55:19 10° SE daylight
07 Aug - 10:42:51 10° W 11:00:18 27° SW 11:12:37 10° S daylight
08 Aug - 01:29:35 10° SSW 01:41:32 39° SE 02:00:27 10° E visible
08 Aug - 03:48:26 10° WSW 04:05:10 67° SSE 04:28:36 10° E visible
08 Aug - 06:10:52 10° W 06:31:56 72° S 06:54:10 10° ESE daylight
08 Aug - 08:36:03 10° W 08:58:07 51° SSW 09:15:54 10° SE daylight
08 Aug - 11:06:21 10° W 11:20:59 20° SW 11:31:15 10° SSW daylight
08 Aug - 23:36:35 10° SSE 23:41:53 14° SE 23:50:02 10° E visible
